CW8310 Weather Reports


time (UTC)temp
F
wind
direction
speed
knots
gust
knots
rain 1hr
in
rain 24hr
in
rain mn
in
humidity
%
barometer
mb
20260503220506 59 0.0 0.0 0.00 0.00 0.00 32 1013.0
20260503220007 59 0.0 0.0 0.00 0.00 0.00 33 1012.9
20260503215505 59 0.0 0.0 0.00 0.00 0.00 32 1013.1
20260503215006 60 0.0 0.0 0.00 0.00 0.00 32 1012.9
20260503214507 60 0.0 0.0 0.00 0.00 0.00 31 1012.9
20260503214004 59 0.0 0.0 0.00 0.00 0.00 33 1012.9
20260503213506 60 0.0 0.0 0.00 0.00 0.00 31 1012.9
20260503213009 60 0.0 0.0 0.00 0.00 0.00 33 1012.9
20260503212507 59 0.0 0.0 0.00 0.00 0.00 33 1012.9
20260503212007 59 0.0 0.0 0.00 0.00 0.00 31 1012.9
20260503211516 59 0.0 0.0 0.00 0.00 0.00 32 1012.8
20260503211005 60 0.0 0.0 0.00 0.00 0.00 31 1012.8
20260503210509 60 0.0 0.0 0.00 0.00 0.00 32 1012.9
20260503210022 60 0.0 0.0 0.00 0.00 0.00 33 1012.9
20260503205508 60 0.0 0.0 0.00 0.00 0.00 31 1012.7
20260503205007 59 0.0 0.0 0.00 0.00 0.00 33 1012.7
20260503204506 59 0.0 0.0 0.00 0.00 0.00 33 1012.8
20260503204003 59 0.0 0.0 0.00 0.00 0.00 33 1012.7
20260503203503 59 0.0 0.0 0.00 0.00 0.00 32 1012.7
20260503203020 59 0.0 0.0 0.00 0.00 0.00 33 1012.7
20260503202508 60 0.0 0.0 0.00 0.00 0.00 33 1012.7
20260503202008 59 0.0 0.0 0.00 0.00 0.00 35 1012.6
20260503201515 60 0.0 0.0 0.00 0.00 0.00 35 1012.7
20260503201008 59 0.0 0.0 0.00 0.00 0.00 34 1012.7
20260503200509 59 0.0 0.0 0.00 0.00 0.00 34 1012.8
20260503200014 59 0.0 0.0 0.00 0.00 0.00 33 1013.0
20260503195509 59 0.0 0.0 0.00 0.00 0.00 33 1012.9
20260503195010 59 0.0 0.0 0.00 0.00 0.00 35 1012.9
20260503194506 59 0.0 0.0 0.00 0.00 0.00 36 1012.9
20260503194002 59 0.0 0.0 0.00 0.00 0.00 35 1012.9
20260503193506 59 0.0 0.0 0.00 0.00 0.00 36 1012.9
20260503193009 60 0.0 0.0 0.00 0.00 0.00 36 1013.1
20260503192504 59 0.0 0.0 0.00 0.00 0.00 37 1013.0
20260503192000 58 0.0 0.0 0.00 0.00 0.00 37 1013.0
20260503191503 58 0.0 0.0 0.00 0.00 0.00 37 1013.1
20260503191003 57 0.0 0.0 0.00 0.00 0.00 37 1013.3
20260503190501 57 0.0 0.0 0.00 0.00 0.00 38 1013.3
20260503190004 57 0.0 0.0 0.00 0.00 0.00 38 1013.3
20260503185503 58 0.0 0.0 0.00 0.00 0.00 41 1013.3
20260503185003 58 0.0 0.0 0.00 0.00 0.00 38 1013.4
20260503184505 57 0.0 0.0 0.00 0.00 0.00 38 1013.4
20260503184004 57 0.0 0.0 0.00 0.00 0.00 38 1013.5
20260503183504 57 0.0 0.0 0.00 0.00 0.00 39 1013.5
20260503183004 56 0.0 0.0 0.00 0.00 0.00 37 1013.5
20260503182500 57 0.0 0.0 0.00 0.00 0.00 40 1013.6
20260503182006 57 0.0 0.0 0.00 0.00 0.00 38 1013.7
20260503181510 57 0.0 0.0 0.00 0.00 0.00 37 1013.6
20260503181004 56 0.0 0.0 0.00 0.00 0.00 38 1013.7
20260503180503 57 0.0 0.0 0.00 0.00 0.00 38 1013.8
20260503180024 57 0.0 0.0 0.00 0.00 0.00 39 1013.8
20260503175501 56 0.0 0.0 0.00 0.00 0.00 38 1013.6
20260503175003 56 0.0 0.0 0.00 0.00 0.00 41 1013.8
20260503174510 55 0.0 0.0 0.00 0.00 0.00 40 1013.8
20260503174005 55 0.0 0.0 0.00 0.00 0.00 41 1013.8
20260503173504 55 0.0 0.0 0.00 0.00 0.00 39 1013.9
20260503173007 55 0.0 0.0 0.00 0.00 0.00 41 1013.7
20260503172504 55 0.0 0.0 0.00 0.00 0.00 41 1013.8
20260503172004 55 0.0 0.0 0.00 0.00 0.00 41 1013.8
20260503171508 56 0.0 0.0 0.00 0.00 0.00 40 1013.8
20260503171006 55 0.0 0.0 0.00 0.00 0.00 40 1013.7
20260503170509 57 0.0 0.0 0.00 0.00 0.00 39 1013.7
20260503151004 53 0.0 0.0 0.00 0.00 0.00 46 1014.1
20260503150506 53 0.0 0.0 0.00 0.00 0.00 46 1014.2
20260503131010 49 0.0 0.0 0.00 0.00 0.00 54 1014.1
20260503130508 50 0.0 0.0 0.00 0.00 0.00 53 1014.1
20260503110512 46 0.0 0.0 0.00 0.00 0.00 59 1013.1
20260503090504 47 0.0 0.0 0.00 0.00 0.00 54 1011.6
20260503081506 48 0.0 0.0 0.00 0.00 0.00 56 1011.3
20260503081004 48 0.0 0.0 0.00 0.00 0.00 58 1011.3
20260503080504 48 0.0 0.0 0.00 0.00 0.00 57 1011.4
20260503072505 49 0.0 0.0 0.00 0.00 0.00 57 1011.3
20260503072002 49 0.0 0.0 0.00 0.00 0.00 56 1011.3
20260503071506 49 0.0 0.0 0.00 0.00 0.00 56 1011.4
20260503071006 49 0.0 0.0 0.00 0.00 0.00 56 1011.4
20260503070504 49 0.0 0.0 0.00 0.00 0.00 56 1011.4
20260503055005 51 0.0 0.0 0.00 0.00 0.00 52 1011.6
20260503054520 51 0.0 0.0 0.00 0.00 0.00 52 1011.6
20260503054006 51 0.0 0.0 0.00 0.00 0.00 52 1011.7
20260503053505 51 0.0 0.0 0.00 0.00 0.00 53 1011.8
20260503053006 51 0.0 0.0 0.00 0.00 0.00 51 1011.8
20260503052504 51 0.0 0.0 0.00 0.00 0.00 53 1011.7
20260503052010 51 0.0 0.0 0.00 0.00 0.00 53 1011.6
20260503051529 51 0.0 0.0 0.00 0.00 0.00 54 1011.7
20260503051004 51 0.0 0.0 0.00 0.00 0.00 53 1011.8
20260503050507 51 0.0 0.0 0.00 0.00 0.00 55 1011.8
20260503050021 51 0.0 0.0 0.00 0.00 0.00 56 1011.8
20260503045504 51 0.0 0.0 0.00 0.00 0.00 54 1012.0
20260503045005 51 0.0 0.0 0.00 0.00 0.00 56 1012.0
20260503044507 52 0.0 0.0 0.00 0.00 0.00 54 1012.1
20260503044006 52 0.0 0.0 0.00 0.00 0.00 55 1012.1
20260503043508 52 0.0 0.0 0.00 0.00 0.00 56 1012.2
20260503043010 52 0.0 0.0 0.00 0.00 0.00 57 1012.3
20260503042506 52 0.0 0.0 0.00 0.00 0.00 56 1012.4
20260503042006 52 0.0 0.0 0.00 0.00 0.00 57 1012.3
20260503041519 52 0.0 0.0 0.00 0.00 0.00 56 1012.4
20260503041007 52 0.0 0.0 0.00 0.00 0.00 56 1012.4
20260503040508 52 0.0 0.0 0.00 0.00 0.00 56 1012.4
20260503040010 52 0.0 0.0 0.00 0.00 0.00 57 1012.3
20260503035505 52 0.0 0.0 0.00 0.00 0.00 59 1012.2
20260503035011 52 0.0 0.0 0.00 0.00 0.00 57 1012.1
20260503034524 52 0.0 0.0 0.00 0.00 0.00 59 1012.1
20260503034007 52 0.0 0.0 0.00 0.00 0.00 60 1012.3
20260503033507 52 0.0 0.0 0.00 0.00 0.00 57 1012.3
20260503033010 52 0.0 0.0 0.00 0.00 0.00 57 1012.3
20260503032503 52 0.0 0.0 0.00 0.00 0.00 60 1012.1
20260503032006 52 0.0 0.0 0.00 0.00 0.00 58 1012.1
20260503031513 52 0.0 0.0 0.00 0.00 0.00 58 1012.4
20260503031007 52 0.0 0.0 0.00 0.00 0.00 58 1012.2
20260503030509 52 0.0 0.0 0.00 0.00 0.00 60 1012.1
20260503030021 52 0.0 0.0 0.00 0.00 0.00 58 1012.1
20260503025508 52 0.0 0.0 0.00 0.00 0.00 60 1012.3
20260503025007 52 0.0 0.0 0.00 0.00 0.00 61 1012.1
20260503024514 52 0.0 0.0 0.00 0.00 0.00 62 1012.1
20260503024011 52 0.0 0.0 0.00 0.00 0.00 63 1012.2
20260503023512 52 0.0 0.0 0.00 0.00 0.00 65 1012.1
20260503023011 52 0.0 0.0 0.00 0.00 0.00 68 1012.3
20260503022507 51 0.0 0.0 0.00 0.00 0.00 71 1012.4
20260503022010 51 0.0 0.0 0.00 0.00 0.00 75 1012.4
20260503021511 51 0.0 0.0 0.00 0.00 0.00 79 1012.4
20260503021007 51 0.0 0.0 0.00 0.00 0.00 81 1012.5
20260503020507 51 0.0 0.0 0.00 0.00 0.00 83 1012.2
20260503020015 51 0.0 0.0 0.00 0.00 0.00 83 1012.3
20260503015507 51 0.0 0.0 0.00 0.00 0.00 83 1012.3
20260503015008 51 0.0 0.0 0.00 0.00 0.00 83 1012.3
20260503014503 51 0.0 0.0 0.00 0.00 0.00 83 1012.4
20260503014003 51 0.0 0.0 0.00 0.00 0.00 84 1012.4
20260503013504 51 0.0 0.0 0.00 0.00 0.00 84 1012.6
20260503013010 51 0.0 0.0 0.00 0.00 0.00 84 1012.5
20260503012503 51 0.0 0.0 0.00 0.00 0.00 84 1012.4
20260503012004 51 0.0 0.0 0.00 0.00 0.00 83 1012.5
20260503011503 51 0.0 0.0 0.00 0.00 0.00 83 1012.4
20260503011004 51 0.0 0.0 0.00 0.00 0.00 83 1012.5
20260503010503 51 0.0 0.0 0.00 0.00 0.00 83 1012.4
20260503010010 52 0.0 0.0 0.00 0.00 0.00 83 1012.1
20260503005503 52 0.0 0.0 0.00 0.00 0.00 82 1012.0
20260503005004 52 0.0 0.0 0.00 0.00 0.00 82 1012.1
20260503004509 52 0.0 0.0 0.00 0.00 0.00 82 1012.0
20260503004003 52 0.0 0.0 0.00 0.00 0.00 82 1012.0
20260503003503 52 0.0 0.0 0.00 0.00 0.00 81 1011.9
20260503003005 52 0.0 0.0 0.00 0.00 0.00 81 1011.9
20260503002503 53 0.0 0.0 0.00 0.00 0.00 80 1011.8
20260503002003 53 0.0 0.0 0.00 0.00 0.00 80 1011.8
20260503001506 53 0.0 0.0 0.00 0.00 0.00 80 1011.8
20260503001007 53 0.0 0.0 0.00 0.00 0.00 79 1011.8
20260503000507 53 0.0 0.0 0.00 0.00 0.00 79 1011.8
20260503000003 54 0.0 0.0 0.00 0.00 0.00 78 1011.8
20260502235504 54 0.0 0.0 0.00 0.00 0.00 78 1011.8
20260502235007 54 0.0 0.0 0.00 0.00 0.00 77 1011.9
20260502234504 54 0.0 0.0 0.00 0.00 0.00 76 1011.8
20260502234009 54 0.0 0.0 0.00 0.00 0.00 76 1011.9
20260502233507 55 0.0 0.0 0.00 0.00 0.00 75 1011.9
20260502233017 55 0.0 0.0 0.00 0.00 0.00 76 1011.9
20260502232503 55 0.0 0.0 0.00 0.00 0.00 75 1011.8
20260502232003 55 0.0 0.0 0.00 0.00 0.00 76 1011.9
20260502231504 55 0.0 0.0 0.00 0.00 0.00 74 1011.8
20260502231003 55 0.0 0.0 0.00 0.00 0.00 75 1012.0
20260502230503 55 0.0 0.0 0.00 0.00 0.00 75 1012.0
20260502230009 55 0.0 0.0 0.00 0.00 0.00 75 1011.9
20260502225503 55 0.0 0.0 0.00 0.00 0.00 75 1011.7
20260502225004 55 0.0 0.0 0.00 0.00 0.00 74 1011.8
20260502224506 55 0.0 0.0 0.00 0.00 0.00 74 1011.7
20260502224008 55 0.0 0.0 0.00 0.00 0.00 74 1011.8
20260502223507 56 0.0 0.0 0.00 0.00 0.00 73 1011.7
20260502223005 56 0.0 0.0 0.00 0.00 0.00 73 1011.6
20260502222504 56 0.0 0.0 0.00 0.00 0.00 73 1011.6
20260502222006 56 0.0 0.0 0.00 0.00 0.00 73 1011.7
20260502221504 56 0.0 0.0 0.00 0.00 0.00 72 1011.7
20260502221008 56 0.0 0.0 0.00 0.00 0.00 73 1011.6